This is the latest recevied weather packets stored in our database for station/object HP1COO-13. If no packets are shown the sender has not sent any weather packets the latest 10 day(s).
| Time | Temp. | Humidity | Pressure | Rain* | Wind** | Luminosity | Snow |
|---|---|---|---|---|---|---|---|
| 1788199450 | 25.56° C | 97% | 1009.5 hPa | 1.78 mm | - | - | - |
| 1788198817 | 25° C | 97% | 1009.4 hPa | 2.29 mm | - | - | - |
| 1788198184 | 25° C | 97% | 1009.5 hPa | 3.05 mm | - | - | - |
| 1788197551 | 25° C | 98% | 1009.7 hPa | 3.3 mm | - | - | - |
| 1788196918 | 25° C | 98% | 1009.6 hPa | 3.81 mm | - | - | - |
| 1788196285 | 25° C | 97% | 1010.1 hPa | 3.3 mm | - | - | - |
| 1788195652 | 25° C | 97% | 1010.3 hPa | 3.3 mm | - | - | - |
| 1788195019 | 25° C | 97% | 1010.5 hPa | 2.79 mm | - | - | - |
| 1788194386 | 25° C | 97% | 1010.5 hPa | 2.54 mm | - | - | - |
| 1788193753 | 25° C | 97% | 1010.7 hPa | 2.03 mm | - | - | - |
| 1788193120 | 25° C | 97% | 1010.8 hPa | 1.78 mm | - | - | - |
| 1788192487 | 25° C | 97% | 1010.9 hPa | 1.27 mm | - | - | - |
| 1788191854 | 25° C | 96% | 1011.2 hPa | 1.02 mm | - | - | - |
| 1788191221 | 25° C | 95% | 1011.1 hPa | 0.76 mm | - | - | - |
| 1788190588 | 25.56° C | 94% | 1011.7 hPa | 0.25 mm | - | - | - |
| 1788189955 | 26.11° C | 92% | 1011.4 hPa | 0 mm | - | - | - |
| 1788189322 | 26.67° C | 94% | 1011.4 hPa | 0 mm | - | - | - |
| 1788188689 | 26.67° C | 94% | 1011.4 hPa | 0 mm | - | - | - |
| 1788188056 | 26.67° C | 94% | 1010.6 hPa | 0 mm | - | - | - |
| 1788187423 | 26.67° C | 94% | 1010.5 hPa | 0 mm | - | - | - |
| 1788186790 | 26.67° C | 94% | 1010.4 hPa | 0 mm | - | - | - |
| 1788186157 | 26.67° C | 94% | 1010.2 hPa | 0 mm | - | - | - |
| 1788185524 | 26.67° C | 94% | 1010.4 hPa | 0 mm | - | - | - |
| 1788184891 | 26.67° C | 94% | 1010.4 hPa | 0 mm | - | - | - |
| 1788184411 | 26.67° C | 94% | 1010.7 hPa | 0 mm | - | - | - |
* Rain latest hour (hover to see other rain measurements)
** Current wind speed in m/s (hover to see current wind gust speed)